When you browse on this site, cookies collect data to enhance your experience and personalize the content and advertising you see.
Visit our Privacy Policy to learn more. By continuing to use the site, you agree to this use of cookies and data.
  • în România
  • Lista ţărilor
  • Pe 7 zile
  • Temperatura apei
  • Hartă satelitară
  • Meteo pe hartă
  • Widget-uri
  • user-avatar
    Intrare

    Meteo pe oră la Mendoza

    Astăzi, 17 Iunie, Luni

    Timp Temperatura Precipitaţii Vânt Presiune Umiditate
    00:00 +5°C° 0 mm 1 m/s 702 mmHg 83%
    01:00 +4°C° 0 mm 0 m/s 701 mmHg 88%
    02:00 +4°C° 0 mm 0 m/s 700 mmHg 87%
    03:00 +3°C° 0 mm 0 m/s 700 mmHg 87%
    04:00 +3°C° 0 mm 0 m/s 699 mmHg 86%
    05:00 +3°C° 0 mm 0 m/s 699 mmHg 85%
    06:00 +3°C° 0 mm 0 m/s 700 mmHg 83%
    07:00 +4°C° 0 mm 1 m/s 700 mmHg 82%
    08:00 +5°C° 0 mm 1 m/s 700 mmHg 74%
    09:00 +6°C° 0 mm 1 m/s 699 mmHg 67%
    10:00 +7°C° 0 mm 1 m/s 699 mmHg 60%
    11:00 +8°C° 0 mm 1 m/s 699 mmHg 57%
    12:00 +7°C° 0 mm 0 m/s 698 mmHg 55%
    13:00 +8°C° 0 mm 0 m/s 698 mmHg 53%
    14:00 +9°C° 0 mm 1 m/s 698 mmHg 51%
    15:00 +9°C° 0 mm 1 m/s 698 mmHg 50%
    16:00 +10°C° 0 mm 1 m/s 698 mmHg 48%
    17:00 +9°C° 0 mm 1 m/s 698 mmHg 51%
    18:00 +8°C° 0 mm 1 m/s 698 mmHg 53%
    19:00 +7°C° 0 mm 1 m/s 699 mmHg 56%
    20:00 +8°C° 0 mm 1 m/s 699 mmHg 53%
    21:00 +7°C° 0 mm 2 m/s 700 mmHg 50%
    22:00 +7°C° 0 mm 2 m/s 701 mmHg 47%
    23:00 +6°C° 0 mm 2 m/s 701 mmHg 46%

    Mâine, 18 Iunie, Marţi

    Timp Temperatura Precipitaţii Vânt Presiune Umiditate
    00:00 +6°C° 0 mm 2 m/s 701 mmHg 45%
    01:00 +7°C° 0 mm 1 m/s 701 mmHg 44%
    02:00 +6°C° 0 mm 2 m/s 701 mmHg 44%
    03:00 +6°C° 0 mm 2 m/s 701 mmHg 44%
    04:00 +5°C° 0 mm 2 m/s 701 mmHg 45%
    05:00 +5°C° 0 mm 2 m/s 701 mmHg 44%
    06:00 +4°C° 0 mm 3 m/s 701 mmHg 42%
    07:00 +4°C° 0 mm 3 m/s 701 mmHg 41%
    08:00 +7°C° 0 mm 2 m/s 701 mmHg 36%
    09:00 +9°C° 0 mm 2 m/s 701 mmHg 30%
    10:00 +12°C° 0 mm 2 m/s 701 mmHg 24%
    11:00 +13°C° 0 mm 2 m/s 700 mmHg 22%
    12:00 +14°C° 0 mm 2 m/s 700 mmHg 19%
    13:00 +15°C° 0 mm 1 m/s 699 mmHg 16%
    14:00 +15°C° 0 mm 1 m/s 699 mmHg 19%
    15:00 +14°C° 0 mm 1 m/s 699 mmHg 22%
    16:00 +14°C° 0 mm 1 m/s 699 mmHg 24%
    17:00 +13°C° 0 mm 1 m/s 699 mmHg 24%
    18:00 +12°C° 0 mm 1 m/s 699 mmHg 24%
    19:00 +11°C° 0 mm 1 m/s 699 mmHg 24%
    20:00 +10°C° 0 mm 2 m/s 700 mmHg 23%
    21:00 +9°C° 0 mm 2 m/s 700 mmHg 22%
    22:00 +9°C° 0 mm 2 m/s 700 mmHg 21%
    23:00 +9°C° 0 mm 2 m/s 700 mmHg 22%

    Poimâine, 19 Iunie, Miercuri

    Timp Temperatura Precipitaţii Vânt Presiune Umiditate
    00:00 +9°C° 0 mm 1 m/s 700 mmHg 23%
    01:00 +8°C° 0 mm 1 m/s 700 mmHg 25%
    02:00 +8°C° 0 mm 1 m/s 700 mmHg 25%
    03:00 +8°C° 0 mm 1 m/s 700 mmHg 25%
    04:00 +6°C° 0 mm 0 m/s 699 mmHg 25%
    05:00 +6°C° 0 mm 0 m/s 700 mmHg 26%
    06:00 +6°C° 0 mm 0 m/s 700 mmHg 26%
    07:00 +6°C° 0 mm 0 m/s 700 mmHg 27%
    08:00 +9°C° 0 mm 1 m/s 700 mmHg 24%
    09:00 +12°C° 0 mm 1 m/s 701 mmHg 21%
    10:00 +14°C° 0 mm 1 m/s 701 mmHg 18%
    11:00 +15°C° 0 mm 1 m/s 701 mmHg 17%
    12:00 +16°C° 0 mm 1 m/s 700 mmHg 17%
    13:00 +18°C° 0 mm 1 m/s 700 mmHg 17%
    14:00 +16°C° 0 mm 1 m/s 700 mmHg 19%
    15:00 +15°C° 0 mm 1 m/s 699 mmHg 21%
    16:00 +15°C° 0 mm 1 m/s 699 mmHg 24%
    17:00 +14°C° 0 mm 1 m/s 699 mmHg 24%
    18:00 +13°C° 0 mm 1 m/s 699 mmHg 24%
    19:00 +11°C° 0 mm 1 m/s 699 mmHg 24%
    20:00 +11°C° 0 mm 1 m/s 699 mmHg 24%
    21:00 +11°C° 0 mm 1 m/s 699 mmHg 25%
    22:00 +10°C° 0 mm 1 m/s 699 mmHg 25%
    23:00 +10°C° 0 mm 1 m/s 699 mmHg 26%

    20 Iunie, Joi

    Timp Temperatura Precipitaţii Vânt Presiune Umiditate
    00:00 +10°C° 0 mm 1 m/s 698 mmHg 27%
    01:00 +10°C° 0 mm 1 m/s 698 mmHg 28%
    02:00 +9°C° 0 mm 1 m/s 698 mmHg 30%
    03:00 +9°C° 0 mm 1 m/s 697 mmHg 31%
    04:00 +8°C° 0 mm 1 m/s 697 mmHg 32%
    05:00 +8°C° 0 mm 1 m/s 697 mmHg 32%
    06:00 +8°C° 0 mm 1 m/s 697 mmHg 32%
    07:00 +8°C° 0 mm 1 m/s 697 mmHg 32%
    08:00 +10°C° 0 mm 1 m/s 697 mmHg 30%
    09:00 +13°C° 0 mm 1 m/s 698 mmHg 27%
    10:00 +15°C° 0 mm 1 m/s 698 mmHg 24%
    11:00 +16°C° 0 mm 1 m/s 698 mmHg 23%
    12:00 +18°C° 0 mm 1 m/s 697 mmHg 22%
    13:00 +18°C° 0 mm 2 m/s 696 mmHg 20%
    14:00 +18°C° 0 mm 1 m/s 696 mmHg 22%
    15:00 +18°C° 0 mm 1 m/s 696 mmHg 24%
    16:00 +16°C° 0 mm 1 m/s 696 mmHg 26%
    17:00 +15°C° 0 mm 1 m/s 696 mmHg 26%
    18:00 +15°C° 0 mm 2 m/s 696 mmHg 26%
    19:00 +14°C° 0 mm 2 m/s 696 mmHg 27%
    20:00 +14°C° 0 mm 2 m/s 696 mmHg 27%
    21:00 +13°C° 0 mm 2 m/s 696 mmHg 28%
    22:00 +13°C° 0 mm 2 m/s 696 mmHg 28%
    23:00 +12°C° 0 mm 2 m/s 696 mmHg 31%

    21 Iunie, Vineri

    Timp Temperatura Precipitaţii Vânt Presiune Umiditate
    00:00 +12°C° 0 mm 2 m/s 696 mmHg 33%
    01:00 +12°C° 0 mm 2 m/s 695 mmHg 35%
    02:00 +10°C° 0 mm 2 m/s 695 mmHg 37%
    03:00 +10°C° 0 mm 2 m/s 695 mmHg 40%
    04:00 +10°C° 0 mm 1 m/s 695 mmHg 43%
    05:00 +10°C° 0 mm 1 m/s 696 mmHg 42%
    06:00 +10°C° 0 mm 1 m/s 696 mmHg 42%
    07:00 +10°C° 0 mm 1 m/s 696 mmHg 42%
    08:00 +13°C° 0 mm 1 m/s 697 mmHg 37%
    09:00 +15°C° 0 mm 1 m/s 698 mmHg 32%
    10:00 +18°C° 0 mm 1 m/s 699 mmHg 27%
    11:00 +19°C° 0 mm 1 m/s 698 mmHg 26%
    12:00 +19°C° 0 mm 2 m/s 698 mmHg 26%
    13:00 +19°C° 0 mm 2 m/s 697 mmHg 25%
    14:00 +19°C° 0 mm 2 m/s 697 mmHg 29%
    15:00 +19°C° 0 mm 1 m/s 697 mmHg 33%
    16:00 +19°C° 0 mm 1 m/s 697 mmHg 37%
    17:00 +16°C° 0 mm 1 m/s 698 mmHg 40%
    18:00 +15°C° 0 mm 1 m/s 698 mmHg 44%
    19:00 +13°C° 0 mm 1 m/s 698 mmHg 47%
    20:00 +13°C° 0 mm 1 m/s 698 mmHg 48%
    21:00 +12°C° 0 mm 1 m/s 698 mmHg 49%
    22:00 +12°C° 0 mm 1 m/s 698 mmHg 50%
    23:00 +12°C° 0 mm 1 m/s 698 mmHg 51%

    22 Iunie, Sâmbătă

    Timp Temperatura Precipitaţii Vânt Presiune Umiditate
    00:00 +11°C° 0 mm 1 m/s 698 mmHg 52%
    01:00 +11°C° 0 mm 1 m/s 698 mmHg 53%
    02:00 +11°C° 0 mm 1 m/s 698 mmHg 56%
    03:00 +10°C° 0 mm 1 m/s 698 mmHg 58%
    04:00 +10°C° 0 mm 1 m/s 698 mmHg 60%
    05:00 +10°C° 0 mm 1 m/s 698 mmHg 59%
    06:00 +10°C° 0 mm 1 m/s 698 mmHg 58%
    07:00 +10°C° 0 mm 1 m/s 698 mmHg 57%
    08:00 +12°C° 0 mm 1 m/s 699 mmHg 52%
    09:00 +14°C° 0 mm 1 m/s 700 mmHg 47%
    10:00 +16°C° 0 mm 1 m/s 700 mmHg 42%
    11:00 +18°C° 0 mm 1 m/s 700 mmHg 41%
    12:00 +19°C° 0 mm 1 m/s 699 mmHg 39%
    13:00 +19°C° 0 mm 1 m/s 699 mmHg 38%
    14:00 +19°C° 0 mm 1 m/s 698 mmHg 41%
    15:00 +19°C° 0 mm 1 m/s 698 mmHg 43%
    16:00 +18°C° 0 mm 1 m/s 698 mmHg 45%
    17:00 +16°C° 0 mm 1 m/s 698 mmHg 49%
    18:00 +15°C° 0 mm 1 m/s 699 mmHg 53%
    19:00 +14°C° 0 mm 1 m/s 699 mmHg 57%
    20:00 +13°C° 0 mm 1 m/s 699 mmHg 61%
    21:00 +13°C° 0 mm 1 m/s 699 mmHg 64%
    22:00 +12°C° 0 mm 1 m/s 699 mmHg 68%
    23:00 +12°C° 0 mm 1 m/s 699 mmHg 69%
    Arată mai mult